CW6427 Weather Reports


Display with metric or nautical units.
time (UTC)temp
F
wind
direction
speed
MPH
gust
MPH
rain 1hr
in
rain 24hr
in
rain mn
in
humidity
%
barometer
mb
20260509041847 40 185 0.0 3.0 0.00 0.04 0.00 83 1013.1
20260509040847 40 185 1.0 3.0 0.00 0.04 0.00 82 1013.1
20260509035847 41 185 1.0 3.0 0.00 0.04 0.04 81 1013.0
20260509034847 41 202 2.0 5.0 0.00 0.04 0.04 78 1013.0
20260509033847 41 216 3.0 4.0 0.00 0.04 0.04 79 1012.9
20260509032846 40 215 1.0 5.0 0.00 0.04 0.04 81 1013.2
20260509031847 40 180 3.0 5.0 0.00 0.04 0.04 82 1013.1
20260509030846 40 189 1.0 4.0 0.00 0.04 0.04 82 1013.2
20260509025846 40 205 2.0 2.0 0.00 0.04 0.04 81 1013.0
20260509024846 41 208 0.0 2.0 0.00 0.04 0.04 78 1013.1
20260509023845 41 208 2.0 3.0 0.00 0.04 0.04 76 1013.2
20260509022845 41 208 2.0 4.0 0.00 0.04 0.04 77 1013.3
20260509021845 41 202 2.0 5.0 0.00 0.04 0.04 76 1013.3
20260509013845 42 225 0.0 0.0 0.00 0.04 0.04 73 1013.0
20260509012844 42 231 0.0 0.0 0.00 0.04 0.04 73 1012.8
20260509011844 42 247 0.0 0.0 0.00 0.04 0.04 73 1012.5
20260509010844 42 248 0.0 0.0 0.00 0.04 0.04 75 1012.3
20260509004843 43 252 0.0 0.0 0.00 0.04 0.04 72 1012.4
20260509002843 45 252 2.0 2.0 0.00 0.04 0.04 67 1012.3
20260509001843 45 252 1.0 2.0 0.00 0.04 0.04 66 1012.3
20260509000843 45 252 2.0 3.0 0.00 0.04 0.04 66 1012.3
20260508235843 45 250 1.0 2.0 0.00 0.04 0.04 66 1012.2
20260508234843 46 297 1.0 1.0 0.00 0.04 0.04 64 1012.1
20260508233842 47 311 0.0 0.0 0.00 0.04 0.04 62 1012.0
20260508232842 48 311 0.0 0.0 0.00 0.04 0.04 63 1012.1
20260508231842 51 312 0.0 0.0 0.00 0.04 0.04 59 1012.3
20260508224842 53 302 2.0 4.0 0.00 0.04 0.04 54 1012.1
20260508223842 52 314 1.0 4.0 0.00 0.04 0.04 54 1012.0
20260508222841 52 279 4.0 8.0 0.00 0.04 0.04 53 1012.1
20260508221841 52 284 3.0 8.0 0.00 0.04 0.04 53 1012.2
20260508220911 52 269 1.0 6.0 0.00 0.04 0.04 56 1012.3
20260508215911 52 277 2.0 10.0 0.00 0.04 0.04 55 1012.2
20260508214911 51 5 3.0 8.0 0.00 0.04 0.04 56 1012.3
20260508212840 51 321 5.0 11.0 0.00 0.04 0.04 54 1012.5
20260508211910 51 277 6.0 13.0 0.00 0.04 0.04 55 1012.5
20260508210840 51 311 3.0 11.0 0.00 0.04 0.04 56 1012.4
20260508204910 50 263 6.0 14.0 0.00 0.04 0.04 57 1012.6
20260508203839 50 309 11.0 16.0 0.00 0.04 0.04 56 1012.7
20260508202839 49 184 5.0 13.0 0.00 0.04 0.04 60 1012.6
20260508201909 49 213 2.0 12.0 0.00 0.04 0.04 64 1012.6
20260508200909 50 286 9.0 14.0 0.00 0.04 0.04 60 1012.8
20260508195908 49 289 3.0 16.0 0.00 0.04 0.04 63 1012.9
20260508194909 50 5 3.0 10.0 0.00 0.04 0.04 64 1012.9
20260508193838 49 340 5.0 11.0 0.00 0.04 0.04 66 1013.0
20260508192908 48 284 6.0 15.0 0.00 0.04 0.04 67 1012.9
20260508191908 48 309 1.0 11.0 0.00 0.04 0.04 68 1012.9
20260508190908 48 186 0.0 13.0 0.00 0.04 0.04 72 1013.0
20260508185908 47 205 1.0 12.0 0.00 0.04 0.04 73 1013.2
20260508184907 47 191 12.0 12.0 0.00 0.04 0.04 72 1013.3
20260508183907 46 198 7.0 14.0 0.00 0.04 0.04 75 1013.3
20260508182907 45 180 3.0 10.0 0.00 0.04 0.04 76 1013.2
20260508181907 45 197 4.0 14.0 0.00 0.04 0.04 76 1013.2
20260508180907 46 202 9.0 16.0 0.00 0.04 0.04 76 1013.4
20260508175906 46 217 4.0 11.0 0.00 0.04 0.04 79 1013.4
20260508174906 45 196 4.0 9.0 0.00 0.04 0.04 80 1013.4
20260508173906 44 289 5.0 11.0 0.00 0.04 0.04 79 1013.6
20260508172906 44 190 2.0 12.0 0.00 0.04 0.04 82 1013.8
20260508171906 43 199 7.0 10.0 0.00 0.04 0.04 82 1013.9
20260508170906 44 219 3.0 10.0 0.00 0.04 0.04 85 1013.7
20260508164905 42 281 6.0 8.0 0.00 0.04 0.04 86 1013.6
20260508163905 42 190 2.0 7.0 0.00 0.04 0.04 87 1013.6
20260508162905 41 281 4.0 10.0 0.00 0.04 0.04 86 1013.5
20260508161905 42 289 3.0 12.0 0.00 0.04 0.04 87 1013.5
20260508160904 42 173 5.0 11.0 0.00 0.04 0.04 92 1013.5
20260508155904 42 208 4.0 11.0 0.00 0.04 0.04 91 1013.4
20260508154904 41 271 3.0 11.0 0.00 0.04 0.04 92 1013.3
20260508153904 41 267 8.0 12.0 0.00 0.04 0.04 94 1013.5
20260508152904 40 207 9.0 11.0 0.01 0.04 0.04 93 1013.4
20260508151904 39 200 3.0 9.0 0.01 0.04 0.04 92 1013.4
20260508150904 39 227 6.0 12.0 0.01 0.04 0.04 92 1013.3
20260508144904 39 184 3.0 13.0 0.01 0.04 0.04 92 1013.3
20260508143903 39 140 2.0 10.0 0.01 0.04 0.04 93 1013.3
20260508142903 39 175 7.0 8.0 0.00 0.03 0.03 92 1013.1
20260508141903 39 202 3.0 9.0 0.00 0.03 0.03 92 1013.0
20260508140903 38 225 3.0 13.0 0.00 0.03 0.03 92 1012.9
20260508134902 39 187 11.0 12.0 0.00 0.03 0.03 89 1013.0
20260508132902 41 288 4.0 8.0 0.00 0.03 0.03 87 1013.0
20260508130902 42 128 2.0 5.0 0.00 0.03 0.03 89 1012.7
20260508125902 42 286 1.0 6.0 0.00 0.03 0.03 90 1012.8
20260508124902 41 355 0.0 3.0 0.00 0.03 0.03 92 1012.5
20260508123902 41 277 0.0 3.0 0.00 0.03 0.03 93 1012.1
20260508122901 41 309 1.0 4.0 0.00 0.03 0.03 95 1011.9
20260508121901 41 360 2.0 4.0 0.00 0.03 0.03 95 1012.0
20260508120901 40 123 2.0 5.0 0.00 0.03 0.03 95 1012.2
20260508113901 39 86 4.0 4.0 0.01 0.03 0.03 96 1012.1
20260508112900 39 138 1.0 4.0 0.01 0.03 0.03 95 1012.5
20260508111900 39 192 1.0 6.0 0.01 0.03 0.03 96 1012.6
20260508105900 38 213 3.0 6.0 0.01 0.03 0.03 96 1012.8
20260508104859 38 215 2.0 5.0 0.01 0.03 0.03 96 1012.6
20260508102859 37 216 1.0 5.0 0.00 0.02 0.02 97 1012.7
20260508100859 36 227 1.0 4.0 0.00 0.02 0.02 97 1012.6
20260508095859 35 182 1.0 3.0 0.00 0.02 0.02 97 1012.5
20260508094858 34 171 1.0 4.0 0.00 0.02 0.02 96 1012.4
20260508093858 34 145 0.0 0.0 0.00 0.02 0.02 95 1012.2
20260508090858 36 144 1.0 1.0 0.00 0.02 0.02 95 1012.3
20260508085858 36 144 0.0 3.0 0.00 0.02 0.02 95 1012.4
20260508084857 37 144 2.0 3.0 0.00 0.02 0.02 95 1012.4
20260508083858 37 42 0.0 1.0 0.00 0.02 0.02 94 1012.5
20260508080857 38 342 1.0 2.0 0.02 0.02 0.02 94 1012.7
20260508075857 37 294 0.0 4.0 0.02 0.02 0.02 94 1012.6
20260508072856 37 5 2.0 6.0 0.01 0.01 0.01 92 1012.6
20260508071856 38 5 3.0 8.0 0.01 0.01 0.01 91 1012.6
20260508070856 38 302 4.0 9.0 0.00 0.00 0.00 90 1012.6
20260508065855 39 340 6.0 14.0 0.00 0.00 0.00 87 1012.7
20260508064856 40 313 5.0 13.0 0.00 0.00 0.00 83 1012.6
20260508063855 41 299 5.0 9.0 0.00 0.00 0.00 79 1012.6
20260508062855 41 342 3.0 10.0 0.00 0.00 0.00 76 1012.5
20260508061855 41 302 5.0 8.0 0.00 0.00 0.00 74 1012.4
20260508060855 42 303 4.0 6.0 0.00 0.00 0.00 73 1012.5
20260508055854 41 266 4.0 4.0 0.00 0.00 0.00 75 1012.3
20260508054854 41 276 0.0 4.0 0.00 0.00 0.00 74 1012.2
20260508053855 40 268 1.0 3.0 0.00 0.00 0.00 76 1012.1
20260508051854 40 267 0.0 3.0 0.00 0.00 0.00 77 1012.0
20260508050854 40 267 0.0 2.0 0.00 0.00 0.00 75 1012.1
20260508045854 41 267 0.0 3.0 0.00 0.00 0.00 74 1012.3
20260508043853 41 267 0.0 3.0 0.00 0.00 0.00 72 1012.2
20260508042853 41 226 0.0 3.0 0.00 0.00 0.00 74 1012.3